カタログに戻る

CHINASAT 16

運用中通信GEO
NORAD 42662·PAYLOAD·🇨🇳 China

打ち上げ Apr 12, 2017 から Xichang Satellite Launch Center

Loading…

TLE

最新Source: Space-Track

元期: Sep 14, 2026, 14:19 UTC

1 42662U 17018A   26257.59702777 -.00000361  00000-0  00000-0 0  9994
2 42662   0.0769  91.2776 0006621 133.4325  94.3589  1.00280137 34649

AllMySatでCHINASAT 16をリアルタイム追跡

Download on the App Store